Overview Statistics Trail Chart Weather Telemetry Raw packets
 

This is the latest recevied weather packets stored in our database for station/object OE6JUE. If no packets are shown the sender has not sent any weather packets the latest 10 day(s).

<< 68 69 70 71 72 73 74 >>
Time Temp. Humidity Pressure Rain* Wind** Luminosity Snow
1788202721 17.78° C 96% 1018.4 hPa 13.46 mm - - -
1788202421 17.78° C 93% 1018.7 hPa 11.94 mm - - -
1788202122 18.33° C 92% 1018.5 hPa 9.65 mm - - -
1788201822 18.33° C 92% 1019 hPa 7.11 mm - - -
1788201521 18.33° C 92% 1019.2 hPa 6.35 mm - - -
1788201221 18.33° C 92% 1018.8 hPa 6.1 mm - - -
1788200921 18.33° C 90% 1018.5 hPa 5.59 mm - - -
1788200621 18.33° C 89% 1018.5 hPa 5.59 mm - - -
1788200321 18.33° C 85% 1018.2 hPa 5.59 mm - - -
1788200021 19.44° C 82% 1018.1 hPa 4.57 mm - - -
1788199721 20° C 79% 1018.3 hPa 1.02 mm - - -
1788199421 20° C 79% 1018.5 hPa 0 mm - - -
1788199121 20.56° C 80% 1018.3 hPa 0 mm - - -
1788198821 20° C 81% 1018 hPa 0 mm - - -
1788198521 20.56° C 81% 1017.6 hPa 0 mm - - -
1788198220 20.56° C 81% 1017.6 hPa 0 mm - - -
1788197921 20.56° C 81% 1017.6 hPa 0 mm - - -
1788197621 20.56° C 82% 1017.2 hPa 0 mm - - -
1788197321 20.56° C 82% 1016.9 hPa 0 mm - - -
1788197021 20° C 87% 1016.7 hPa 0 mm - - -
1788196721 19.44° C 89% 1016.5 hPa 0 mm - - -
1788196421 19.44° C 88% 1016.2 hPa 0 mm - - -
1788196121 19.44° C 88% 1016.4 hPa 0 mm - - -
1788195821 19.44° C 88% 1016.5 hPa 0.25 mm - - -
1788195521 19.44° C 87% 1016.3 hPa 0.51 mm - - -

* Rain latest hour (hover to see other rain measurements)
** Current wind speed in m/s (hover to see current wind gust speed)